GW3196 Weather Reports


Display with metric or nautical units.
time (UTC)temp
F
wind
direction
speed
MPH
gust
MPH
rain 1hr
in
rain 24hr
in
rain mn
in
humidity
%
barometer
mb
20260506061601 58 150 4.0 7.0 0.00 0.00 0.00 86 1015.5
20260506050111 60 157 3.0 7.0 0.00 0.00 0.00 83 1016.4
20260506044557 60 143 4.0 7.0 0.00 0.00 0.00 83 1016.5
20260506043101 60 143 3.0 7.0 0.00 0.00 0.00 82 1016.7
20260506041557 60 153 5.0 8.0 0.00 0.00 0.00 82 1016.8
20260506040106 61 151 3.0 7.0 0.00 0.00 0.00 81 1016.9
20260506034606 61 146 2.0 5.0 0.00 0.00 0.00 80 1017.0
20260506033059 61 144 3.0 7.0 0.00 0.00 0.00 79 1017.0
20260506031559 62 155 2.0 7.0 0.00 0.00 0.00 79 1017.0
20260506030058 62 142 3.0 9.0 0.00 0.00 0.00 78 1017.1
20260506024558 63 127 4.0 7.0 0.00 0.00 0.00 77 1017.1
20260506023054 64 146 3.0 7.0 0.00 0.00 0.00 76 1017.0
20260506021605 64 140 4.0 8.0 0.00 0.00 0.00 75 1017.0
20260506020058 65 142 4.0 9.0 0.00 0.00 0.00 74 1016.7
20260506014554 65 142 3.0 7.0 0.00 0.00 0.00 73 1016.7
20260506013102 66 157 5.0 10.0 0.00 0.00 0.00 72 1016.6
20260506011604 67 182 4.0 10.0 0.00 0.00 0.00 70 1016.5
20260506010054 67 207 6.0 12.0 0.00 0.00 0.00 70 1016.4
20260506004556 68 144 6.0 15.0 0.00 0.00 0.00 68 1016.2
20260506003053 69 142 9.0 14.0 0.00 0.00 0.00 68 1016.0
20260506001554 69 150 7.0 13.0 0.00 0.00 0.00 68 1015.9
20260506000054 70 136 8.0 14.0 0.00 0.00 0.00 66 1015.8
20260505234606 71 149 10.0 18.0 0.00 0.00 0.00 65 1015.8
20260505233056 72 100 10.0 20.0 0.00 0.00 0.00 64 1015.7
20260505231607 72 134 12.0 18.0 0.00 0.00 0.00 62 1015.7
20260505230054 73 139 9.0 19.0 0.00 0.00 0.00 61 1015.6
20260505224554 74 158 10.0 20.0 0.00 0.00 0.00 59 1015.7
20260505223106 75 127 11.0 25.0 0.00 0.00 0.00 58 1015.7
20260505221558 76 242 8.0 22.0 0.00 0.00 0.00 54 1015.8
20260505220059 76 142 9.0 20.0 0.00 0.00 0.00 51 1015.6
20260505214615 77 200 8.0 18.0 0.00 0.00 0.00 50 1015.6
20260505213108 77 214 7.0 18.0 0.00 0.00 0.00 49 1015.6
20260505211608 77 143 9.0 20.0 0.00 0.00 0.00 49 1015.6
20260505210057 77 209 7.0 20.0 0.00 0.00 0.00 50 1015.5
20260505204554 77 141 9.0 20.0 0.00 0.00 0.00 49 1015.4
20260505203053 77 179 9.0 19.0 0.00 0.00 0.00 50 1015.6
20260505201558 77 192 12.0 25.0 0.00 0.00 0.00 48 1015.7
20260505200105 78 153 10.0 20.0 0.00 0.00 0.00 48 1015.8
20260505194559 78 144 7.0 19.0 0.00 0.00 0.00 48 1016.0
20260505193053 78 163 10.0 22.0 0.00 0.00 0.00 48 1016.4
20260505191553 78 188 6.0 21.0 0.00 0.00 0.00 46 1016.4
20260505190056 77 151 5.0 18.0 0.00 0.00 0.00 49 1016.6
20260505184554 79 169 7.0 15.0 0.00 0.00 0.00 48 1016.6
20260505183104 78 163 8.0 17.0 0.00 0.00 0.00 47 1016.8
20260505181554 77 142 8.0 14.0 0.00 0.00 0.00 50 1017.1
20260505180059 77 155 6.0 17.0 0.00 0.00 0.00 49 1017.1
20260505174601 77 170 6.0 20.0 0.00 0.00 0.00 50 1017.0
20260505173056 77 155 9.0 19.0 0.00 0.00 0.00 51 1017.1
20260505171556 76 209 4.0 14.0 0.00 0.00 0.00 50 1017.1
20260505170054 77 132 7.0 14.0 0.00 0.00 0.00 52 1017.3
20260505164604 75 171 5.0 19.0 0.00 0.00 0.00 54 1017.2
20260505163053 75 174 4.0 18.0 0.00 0.00 0.00 53 1017.5
20260505161603 76 229 5.0 13.0 0.00 0.00 0.00 52 1017.8
20260505153102 74 167 6.0 16.0 0.00 0.00 0.00 54 1018.3
20260505151604 73 240 4.0 12.0 0.00 0.00 0.00 56 1018.3
20260505140113 70 211 5.0 14.0 0.00 0.00 0.00 65 1018.3
20260505124557 65 155 3.0 10.0 0.00 0.00 0.00 77 1018.3
20260505123059 63 134 4.0 8.0 0.00 0.00 0.00 81 1018.4
20260505121559 61 152 4.0 8.0 0.00 0.00 0.00 83 1018.2
20260505120057 59 156 3.0 8.0 0.00 0.00 0.00 85 1018.1
20260505114600 57 136 2.0 5.0 0.00 0.00 0.00 87 1018.0
20260505113120 56 161 2.0 4.0 0.00 0.00 0.00 88 1017.9
20260505111557 55 130 1.0 3.0 0.00 0.00 0.00 88 1017.7
20260505101554 54 0 0.0 0.0 0.00 0.00 0.00 86 1016.9
20260505100055 55 0 0.0 0.0 0.00 0.00 0.00 86 1016.9
20260505094554 55 136 0.0 3.0 0.00 0.00 0.00 86 1016.7
20260505093100 55 0 1.0 3.0 0.00 0.00 0.00 85 1016.6
20260505091603 56 180 1.0 3.0 0.00 0.00 0.00 84 1016.5
20260505090054 56 0 0.0 3.0 0.00 0.00 0.00 84 1016.4
20260505084556 56 169 1.0 3.0 0.00 0.00 0.00 83 1016.3
20260505083101 56 0 0.0 3.0 0.00 0.00 0.00 83 1016.3
20260505081604 57 150 2.0 4.0 0.00 0.00 0.00 82 1016.2
20260505080053 57 181 1.0 4.0 0.00 0.00 0.00 81 1016.3
20260505074553 57 0 1.0 4.0 0.00 0.00 0.00 80 1016.2
20260505073106 58 173 0.0 4.0 0.00 0.00 0.00 79 1016.3
20260505071602 58 167 2.0 5.0 0.00 0.00 0.00 78 1016.2
20260505070101 59 179 3.0 6.0 0.00 0.00 0.00 77 1016.1